Regional Weather Roundup
Issued by NWS Sterling, VA

Home | Current Version | Previous Version | Graphics & Text | Print | Product List | Glossary On
Versions: 1 2 3 4 5 6 7 8 9 10 11 12 13 14 15 16 17 18 19 20 21 22 23 24 25 26 27 28 29 30 31 32 33 34 35 36 37 38 39 40 41 42 43 44 45 46 47 48 49 50
000
ASUS41 KLWX 281910
RWRLWX

REGIONAL WEATHER ROUNDUP
NATIONAL WEATHER SERVICE BALTIMORE MD/WASHINGTON DC
300 PM EDT THU AUG 28 2014

Note: "FAIR" indicates few or no clouds below 12,000 feet
with no significant weather and/or obstructions to visibility.
 TC=TEMPERATURE CELSIUS

 * =Non NWS site. Station does not report precipitation (e.g. rain,
    snow, etc.), thunder, or fog.

DCZ001-MDZ009-015-VAZ040>042-051-053>054-282000-
WASHINGTON METRO
  /KDAA//-FT BELVOIR

CITY           SKY/WX    TMP DP  RH WIND       PRES   REMARKS
WASHINGTON NAT MOSUNNY   85  60  42 W15G23    29.97F
DULLES         PTSUNNY   80  60  50 NW14      29.98F
ANDREWS AFB    SUNNY     83  59  44 NW14G22   29.96F
QUANTICO       MOSUNNY   84  60  44 N6        29.97F
COLLEGE PARK*  SUNNY     82  59  44 NW8       29.96F
LEESBURG*      SUNNY     81  63  54 N10G16    29.99F
MANASSAS*      SUNNY     84  61  45 N8        29.98F
GAITHERSBURG*  MOSUNNY   79  59  50 NW9       30.02F

$$

MDZ006>007-011-014-282000-
BALTIMORE METRO

CITY           SKY/WX    TMP DP  RH WIND       PRES   REMARKS
BWI AIRPORT    MOSUNNY   83  56  39 W14G24    29.95F
MD SCIENCE CTR   N/A     81  57  43 MISG      29.95F
MARTIN STATE   MOSUNNY   82  61  47 NW8G20    29.97
ANNAPOLIS      SUNNY     80  60  50 NW8       29.94F
FORT MEADE*    MOSUNNY   81  59  47 NW8       29.98F

$$

MDZ012-015-019>023-282000-
MARYLAND EASTERN SHORE

CITY           SKY/WX    TMP DP  RH WIND       PRES   REMARKS
OCEAN CITY     SUNNY     85  60  42 N10       29.92S
SALISBURY      SUNNY     86  62  44 N9        29.92F
BAY BRIDGE AP*   N/A     81  59  47 N10       29.95S
CAMBRIDGE*     MOSUNNY   81  59  47 N8        29.94F

$$

MDZ017>025-282000-
SOUTHERN MARYLAND

CITY           SKY/WX    TMP DP  RH WIND       PRES   REMARKS
PATUXENT RIVER MOSUNNY   83  64  52 NE12      29.94F
ST INIGOES     SUNNY     85  63  47 VRB7      29.93F
LEONARDTOWN*   MOSUNNY   86  55  35 W5        29.96F

$$

MDZ003>005-282000-
NORTH CENTRAL MARYLAND

CITY           SKY/WX    TMP DP  RH WIND       PRES   REMARKS
FREDERICK*     MOSUNNY   82  61  47 NW8       30.01F
HAGERSTOWN APT SUNNY     78  52  40 NW12G22   30.00F
WESTMINSTER*   MOSUNNY   79  57  47 N6G17     29.99F

$$

MDZ501>502-282000-
WESTERN MARYLAND

CITY           SKY/WX    TMP DP  RH WIND       PRES   REMARKS
OAKLAND*       SUNNY     64  50  59 NW8       30.14F
CUMBERLAND*    SUNNY     82  48  30 NW9       30.07F

$$

VAZ025>031-282000-
SHENANDOAH VALLEY

CITY           SKY/WX    TMP DP  RH WIND       PRES   REMARKS
WINCHESTER*    MOSUNNY   82  54  36 NW12G17   29.99F
STAUNTON*      SUNNY     86  60  40 N6        30.02F

$$

WVZ021-048>050-054>055-282000-
EASTERN WEST VIRGINIA PANHANDLE

CITY           SKY/WX    TMP DP  RH WIND       PRES   REMARKS
MARTINSBURG    MOSUNNY   83  48  29 NW16      30.00F
PETERSBURG*    NOT AVBL

$$

VAZ036>039-050-282000-
CENTRAL FOOTHILLS

CITY           SKY/WX    TMP DP  RH WIND       PRES   REMARKS
CHARLOTTESVILL SUNNY     87  63  44 NE7       29.97F
ORANGE*        SUNNY     84  63  48 N3        29.99F

$$

VAZ055>057-282000-
NORTH AND CENTRAL PIEDMONT

CITY           SKY/WX    TMP DP  RH WIND       PRES   REMARKS
FREDERICKSBRG* SUNNY     87  58  38 NW7G16    29.96F
STAFFORD*      SUNNY     83  61  47 NW8       30.01F

$$

NCZ024-NYZ072-PAZ021-071-VAZ022-071-282000-
OTHER REGIONAL OBSERVATIONS

CITY           SKY/WX    TMP DP  RH WIND       PRES   REMARKS
NEW YORK CITY  MOSUNNY   81  50  33 VRB6      29.91S
PHILADELPHIA   MOSUNNY   80  55  42 W16G26    29.93F
PITTSBURGH     MOSUNNY   71  51  49 NW12      30.10F
ROANOKE        MOSUNNY   87  64  46 W8        30.03F
RICHMOND       PTSUNNY   91  62  37 NW6       29.95F HX  91
RALEIGH        MOSUNNY   90  70  51 VRB3      29.97F HX  95

$$

ANZ530>537-282000-
MARINE OBSERVATIONS

STATION/POSITION TIME  TEMP    WIND        PRES
                       AIR SEA DIR/SP/G
                 (UTC) (F)     (DEG/KT/KT) (MB)
THOMAS PT LIGHT  1900   79 79  360/ 14/ 15 1014.7F
BALT KEY BRIDGE  1900   85     320/ 11/ 14 1014.1F
COVE POINT       1900   77      30/ 10/ 11 1013.9F
LEWISETTA        1900   82 80  310/ 10/ 11 1013.7S
SOLOMONS ISLAND  1900      80                N/A
PINEY POINT      1900          300/ 13/ 15   N/A

$$



USA.gov is the U.S. government's official web portal to all federal, state and local government web resources and services.